Regional Weather Roundup
Issued by NWS

Home | Current Version | Previous Version | Graphics & Text | Print | Product List | Glossary On
Versions: 1 2 3 4 5 6 7 8 9 10 11 12 13 14 15 16 17 18 19 20 21 22 23 24 25 26 27 28 29 30 31 32 33 34 35 36 37 38 39 40 41 42 43 44 45 46 47 48 49 50
000
ASUS45 KBOU 071407
RWRCO

WEATHER ROUNDUP FOR COLORADO
NATIONAL WEATHER SERVICE DENVER/BOULDER CO
700 AM MST WED DEC 07 2016

NOTE: "FAIR" INDICATES FEW OR NO CLOUDS BELOW 12000 FEET WITH NO
SIGNIFICANT WEATHER AND/OR OBSTRUCTIONS TO VISIBILITY.

COZ001>005-013-030-031-071500-
...NORTHWEST COLORADO...

CITY           SKY/WX    TMP DP  RH WIND       PRES   REMARKS
CRAIG          CLOUDY     5   0  79 W3        30.02R
HAYDEN         MOCLDY    10   7  85 CALM      29.99R
MEEKER         LGT SNOW  13   9  84 CALM      30.00R VSB 3/4
MOUNT WERNER   NOT AVBL
STEAMBOAT SPGS CLOUDY    10   6  83 CALM      29.97R
WALDEN           N/A     -4  -9  77 CALM      29.89R
$$

COZ006>008-011-071500-
...WEST CENTRAL VALLEYS...

CITY           SKY/WX    TMP DP  RH WIND       PRES   REMARKS
GRAND JUNCTION MOCLDY    15  15 100 E5        30.07R FOG     WCI   8
MONTROSE       MOCLDY    18  16  92 S3        30.05R
EAGLE          FAIR       7   3  84 E10       30.00R WCI  -8
RIFLE          FAIR      12   9  87 CALM      30.03R
DELTA          FAIR      20  16  86 CALM      30.05R
NUCLA          FAIR      21  18  86 CALM      30.06R
$$

COZ017>023-064>068-071500-
...SOUTHWEST COLORADO...

CITY           SKY/WX    TMP DP  RH WIND       PRES   REMARKS
DURANGO        FAIR      23  11  60 W9        29.91R WCI  13
CORTEZ         CLOUDY    26  19  74 CALM      30.01R
PAGOSA SPRINGS FAIR      23  14  69 S3        29.90R
TELLURIDE      FAIR      11   8  87 CALM      29.93R
WOLF CREEK PAS LGT SNOW   7   5  92 SW16G31   29.81R WCI -11
$$

COZ009-010-012-014-032>034-037-058>063-071500-
...CENTRAL COLORADO...

CITY           SKY/WX    TMP DP  RH WIND       PRES   REMARKS
ASPEN          LGT SNOW   9   6  88 CALM      29.91R FOG
BUENA VISTA    FAIR      14   2  59 NW8       29.87R WCI   2
COPPER MTN     CLOUDY     0  -8  71 MISG      29.70R
BERTHOUD PASS    N/A    -11 -22  58 MISG      29.64R HAZE
COTTONWOOD PAS LGT SNOW  12   3  67 NW6       29.80R WCI   3
GUNNISON       FAIR      11   0  61 CALM      29.93R
KREMMLING      FAIR      10   1  67 CALM      29.94R
LEADVILLE      LGT SNOW   3  -4  72 NW12      29.80R WCI -13
MONARCH PASS   CLOUDY     1  -4  78 W26G40    29.81R WCI -23
SALIDA         FAIR      11   7  83 NE5       29.97R WCI   3
SUNLIGHT       LGT SNOW   1  -2  85 SW9G16    29.85R WCI -14
WILKERSON PASS FAIR       0  -6  78 N9G21     29.76R WCI -16
$$

COZ069>075-071500-
...SAN LUIS VALLEY/SANGRE DE CRISTO MOUNTAINS...

CITY           SKY/WX    TMP DP  RH WIND       PRES   REMARKS
ALAMOSA        FAIR      14  10  84 VRB3      29.88R
LA VETA PASS   FLURRIES  14   9  79 NE6       29.80R WCI   5
SAGUACHE       FAIR      16   5  62 NW13      29.90R WCI   2
$$

COZ035-036-038>040-071500-
...NORTHERN COLORADO FRONT RANGE...

CITY           SKY/WX    TMP DP  RH WIND       PRES   REMARKS
DENVER INTL AP SNOW      12   8  84 NE16      30.05R VSB 1/2 WCI  -5
DMNS CITY PARK   N/A     10   7  87 N10       30.08R WCI  -3
AURORA         LGT SNOW  12  11  93 CALM      30.04R FOG
FRONT RANGE AP LGT SNOW  16  12  86 N15       30.06  VSB 1   WCI   1
ERIE MUNI ARPT   N/A     10   7  87 N10       30.11R WCI  -3
BOULDER MUN AP CLOUDY    12   9  85 N6        30.10R WCI   3
CENTENNIAL     LGT SNOW  12   9  87 CALM      30.02R FOG
BROOMFIELD     LGT SNOW  10   7  85 N17       30.06R VSB 1   WCI  -7
FORT COLLINS   MOCLDY     9   5  85 NE8       30.12R WCI  -4
LONGMONT       LGT SNOW  14   9  81 N3        30.14R
$$

COZ041-046-047-076>085-087-088-071500-
...PIKES PEAK/PALMER DIVIDE AND SOUTHERN FOOTHILLS...

CITY           SKY/WX    TMP DP  RH WIND       PRES   REMARKS
COLO. SPRINGS  MOCLDY    12   5  73 NE7       29.99R WCI   1
A. F. ACADEMY  CLOUDY    10   5  79 NW3       29.96R
SCHRIEVER AFB  NOT AVBL
ELLICOTT       LGT RAIN N/A N/A N/A NE13        N/A
FALCON         FLURRIES  10   7  85 NE8       29.96R WCI  -1
FORT CARSON    FAIR      12   7  79 N7        29.99R WCI   2
LIMON          CLOUDY    14  12  92 NE6       30.04R WCI   5
MONUMENT HILL  LGT SNOW   7   3  85 CALM      29.95R
TRINIDAD       CLOUDY    15   6  67 W13       29.98R WCI   1
$$

COZ042>045-048>051-090-091-071500-
...NORTHEAST COLORADO...

CITY           SKY/WX    TMP DP  RH WIND       PRES   REMARKS
GREELEY ARPT   NOT AVBL
AKRON          LGT SNOW  10   7  87 E10       30.10R VSB 1   WCI  -4
BURLINGTON     LGT SNOW  15  10  80 NE15      30.11R WCI   0
WRAY           NOT AVBL
STERLING       LGT SNOW  12   9  85 N12       30.17R WCI  -2
HOLYOKE        LGT SNOW  14  10  85 N9        30.18R WCI   2
FORT MORGAN    CLOUDY    10   6  85 N14G20    30.13R WCI  -6
$$

COZ086-089-092>099-071500-
...SOUTHEAST COLORADO...

CITY           SKY/WX    TMP DP  RH WIND       PRES   REMARKS
PUEBLO         FAIR      15   7  70 N10       30.06R WCI   2
LA JUNTA       MOCLDY    15  10  80 NW6       30.04R WCI   6
LAMAR          CLOUDY    18   8  65 E14       30.00S WCI   4
SPRINGFIELD      N/A      7   1  76 NW8       29.99R WCI  -6
$$



USA.gov is the U.S. government's official web portal to all federal, state and local government web resources and services.